Precipitable_Water
0.69 0.68 0.67 0.66 0.66 0.66 0.68 0.70 0.70 0.70 0.68 0.64 0.58 0.52 0.51 0.52 0.49 0.40 0.25 0.29 0.38 0.49 0.53 0.76 0.80 1.18 1.44 1.43 1.41 1.45 1.22 1.03 0.96 1.00 1.00 1.08 1.08 1.39 1.36 1.29 1.40 1.46 1.43 1.62 1.76
0.58 0.57 0.57 0.58 0.59 0.59 0.61 0.63 0.65 0.66 0.67 0.66 0.65 0.60 0.53 0.52 0.39 0.28 0.33 0.39 0.38 0.45 0.44 0.64 0.67 1.11 1.18 1.24 1.28 1.22 1.18 1.21 1.19 1.16 1.12 1.19 1.01 1.01 1.03 1.13 1.26 1.27 1.50 1.62 1.65
0.46 0.46 0.47 0.49 0.51 0.52 0.54 0.56 0.59 0.61 0.62 0.64 0.69 0.66 0.60 0.54 0.29 0.22 0.40 0.37 0.40 0.37 0.39 0.65 0.76 1.04 1.03 1.15 1.16 1.16 1.05 1.17 1.18 1.32 1.23 1.14 0.96 1.08 0.97 0.98 1.21 1.07 1.26 1.43 1.52
0.40 0.40 0.41 0.42 0.44 0.45 0.47 0.49 0.53 0.56 0.59 0.62 0.68 0.70 0.67 0.53 0.19 0.49 0.40 0.41 0.41 0.34 0.32 0.59 0.73 0.78 0.90 0.90 1.09 0.99 1.18 1.18 1.20 1.21 1.19 1.22 1.28 1.06 0.99 1.13 1.26 1.25 1.29 1.34 1.34
0.38 0.37 0.37 0.37 0.38 0.40 0.41 0.43 0.45 0.49 0.57 0.62 0.68 0.78 0.64 0.42 0.26 0.42 0.42 0.46 0.41 0.30 0.28 0.40 0.67 0.74 0.73 0.89 1.00 0.93 1.09 1.29 1.36 1.13 1.11 1.25 1.17 1.13 1.11 1.25 1.27 1.22 1.25 1.25 1.26
0.38 0.38 0.37 0.36 0.35 0.35 0.36 0.38 0.39 0.44 0.59 0.70 0.79 0.83 0.56 0.35 0.51 0.43 0.44 0.45 0.34 0.30 0.30 0.30 0.58 0.78 0.81 0.82 0.86 0.96 0.97 1.08 1.24 0.98 1.09 0.98 1.09 0.98 1.09 1.15 0.97 1.02 1.14 1.20 1.26
0.38 0.37 0.35 0.35 0.34 0.33 0.33 0.34 0.36 0.46 0.60 0.69 0.81 0.77 0.54 0.43 0.54 0.36 0.42 0.44 0.40 0.33 0.26 0.29 0.47 0.68 0.80 0.78 0.92 0.89 0.88 0.95 1.17 0.91 0.89 0.87 1.00 0.94 1.34 1.36 1.03 1.00 1.03 1.13 1.22
0.39 0.37 0.34 0.32 0.31 0.29 0.30 0.34 0.36 0.47 0.60 0.62 0.76 0.71 0.48 0.70 0.64 0.46 0.29 0.32 0.42 0.37 0.32 0.39 0.37 0.56 0.70 0.84 0.83 0.75 0.83 0.72 0.87 0.93 0.85 0.74 0.66 0.98 1.17 1.20 1.03 1.10 1.08 1.01 1.10
0.40 0.38 0.35 0.33 0.30 0.32 0.34 0.37 0.43 0.52 0.65 0.60 0.60 0.58 0.47 0.73 0.60 0.58 0.44 0.26 0.46 0.45 0.44 0.46 0.40 0.42 0.57 0.66 0.65 0.67 0.58 0.69 0.77 0.88 0.83 0.69 0.62 0.82 1.17 1.20 1.09 1.06 1.13 1.09 1.02
0.39 0.36 0.34 0.31 0.30 0.35 0.37 0.39 0.46 0.57 0.76 0.65 0.64 0.46 0.52 0.52 0.60 0.62 0.57 0.38 0.43 0.47 0.47 0.44 0.42 0.35 0.44 0.55 0.42 0.56 0.55 0.65 0.67 0.71 0.71 0.68 0.63 0.84 0.89 1.18 1.28 1.07 1.16 1.17 1.12
0.36 0.34 0.31 0.31 0.30 0.36 0.41 0.30 0.21 0.39 0.34 0.40 0.50 0.34 0.48 0.63 0.58 0.53 0.56 0.42 0.46 0.47 0.39 0.47 0.38 0.28 0.34 0.50 0.59 0.61 0.54 0.48 0.65 0.76 0.70 0.65 0.65 0.74 0.88 0.97 1.30 1.15 1.33 1.11 1.15
0.39 0.36 0.32 0.29 0.31 0.36 0.40 0.24 0.21 0.26 0.19 0.23 0.24 0.33 0.41 0.53 0.48 0.48 0.51 0.38 0.41 0.37 0.49 0.45 0.30 0.37 0.44 0.50 0.54 0.55 0.49 0.42 0.57 0.68 0.72 0.64 0.63 0.66 0.79 0.90 1.22 1.10 1.42 1.12 1.20
0.40 0.36 0.32 0.29 0.32 0.35 0.28 0.22 0.25 0.28 0.19 0.17 0.16 0.17 0.18 0.36 0.35 0.47 0.44 0.44 0.43 0.42 0.45 0.35 0.34 0.45 0.44 0.44 0.41 0.49 0.46 0.43 0.49 0.66 0.80 0.71 0.60 0.64 0.77 0.88 0.98 1.23 1.16 1.19 1.20
0.40 0.37 0.33 0.33 0.27 0.35 0.23 0.22 0.24 0.27 0.13 0.12 0.16 0.19 0.19 0.19 0.26 0.50 0.42 0.54 0.46 0.39 0.48 0.42 0.48 0.40 0.39 0.39 0.37 0.38 0.51 0.50 0.53 0.52 0.49 0.58 0.47 0.56 0.58 0.71 0.88 1.00 1.12 1.21 1.18
0.41 0.38 0.37 0.38 0.32 0.31 0.22 0.24 0.23 0.26 0.07 0.24 0.26 0.37 0.28 0.18 0.27 0.32 0.50 0.50 0.42 0.44 0.51 0.39 0.39 0.36 0.36 0.34 0.36 0.28 0.38 0.48 0.52 0.47 0.51 0.51 0.46 0.48 0.56 0.61 0.77 0.92 0.95 1.36 1.23
0.44 0.42 0.44 0.38 0.41 0.33 0.26 0.24 0.27 0.18 0.08 0.35 0.40 0.36 0.33 0.27 0.23 0.37 0.44 0.44 0.52 0.46 0.55 0.50 0.48 0.37 0.29 0.33 0.29 0.29 0.36 0.36 0.37 0.40 0.31 0.40 0.47 0.46 0.46 0.53 0.61 0.82 1.02 1.04 1.20
0.45 0.45 0.48 0.47 0.32 0.29 0.28 0.27 0.16 0.13 0.19 0.28 0.33 0.34 0.32 0.34 0.30 0.27 0.39 0.39 0.28 0.31 0.41 0.49 0.47 0.37 0.30 0.26 0.27 0.25 0.24 0.20 0.19 0.21 0.22 0.33 0.37 0.41 0.53 0.61 0.65 0.72 0.85 1.07 1.17
0.48 0.48 0.52 0.49 0.37 0.30 0.28 0.23 0.14 0.15 0.19 0.29 0.30 0.31 0.28 0.35 0.38 0.34 0.34 0.37 0.32 0.33 0.38 0.31 0.29 0.39 0.30 0.25 0.23 0.21 0.19 0.16 0.13 0.16 0.20 0.27 0.25 0.30 0.48 0.56 0.62 0.73 0.80 0.88 1.03
0.52 0.49 0.50 0.46 0.38 0.34 0.28 0.20 0.16 0.16 0.18 0.17 0.21 0.25 0.31 0.39 0.42 0.45 0.35 0.35 0.38 0.31 0.33 0.31 0.30 0.44 0.37 0.31 0.30 0.23 0.18 0.22 0.19 0.21 0.19 0.22 0.26 0.32 0.42 0.47 0.54 0.58 0.71 0.79 0.91
0.48 0.47 0.50 0.51 0.42 0.40 0.30 0.21 0.21 0.23 0.21 0.17 0.15 0.22 0.26 0.32 0.35 0.46 0.42 0.37 0.40 0.35 0.39 0.37 0.33 0.37 0.38 0.38 0.31 0.27 0.28 0.18 0.19 0.15 0.15 0.18 0.21 0.22 0.27 0.39 0.47 0.53 0.61 0.71 0.85
0.48 0.38 0.45 0.56 0.45 0.39 0.29 0.24 0.26 0.28 0.21 0.17 0.16 0.20 0.26 0.32 0.41 0.43 0.47 0.54 0.53 0.48 0.44 0.40 0.38 0.36 0.40 0.33 0.28 0.25 0.26 0.24 0.21 0.18 0.17 0.20 0.24 0.28 0.31 0.32 0.41 0.46 0.55 0.64 0.82
0.46 0.35 0.54 0.51 0.36 0.34 0.28 0.31 0.32 0.29 0.26 0.24 0.23 0.22 0.32 0.43 0.42 0.47 0.52 0.62 0.69 0.52 0.45 0.47 0.37 0.33 0.39 0.40 0.39 0.33 0.26 0.29 0.22 0.18 0.20 0.24 0.27 0.36 0.35 0.35 0.37 0.45 0.51 0.61 0.73
0.36 0.44 0.59 0.55 0.33 0.32 0.34 0.32 0.29 0.29 0.31 0.28 0.26 0.23 0.33 0.36 0.38 0.50 0.57 0.73 0.68 0.53 0.52 0.56 0.40 0.30 0.38 0.46 0.40 0.32 0.31 0.29 0.33 0.26 0.21 0.20 0.24 0.39 0.37 0.39 0.42 0.41 0.51 0.57 0.68
0.47 0.44 0.52 0.52 0.49 0.41 0.35 0.30 0.26 0.28 0.33 0.37 0.36 0.28 0.29 0.37 0.42 0.45 0.51 0.61 0.67 0.58 0.54 0.56 0.45 0.41 0.34 0.38 0.41 0.33 0.33 0.32 0.29 0.26 0.23 0.25 0.31 0.37 0.36 0.37 0.42 0.41 0.49 0.59 0.66
0.59 0.50 0.52 0.37 0.40 0.42 0.41 0.33 0.30 0.28 0.37 0.36 0.28 0.30 0.36 0.30 0.37 0.41 0.49 0.52 0.65 0.62 0.53 0.54 0.44 0.48 0.46 0.48 0.50 0.38 0.34 0.33 0.27 0.31 0.26 0.29 0.30 0.38 0.39 0.39 0.44 0.45 0.53 0.60 0.69
0.56 0.51 0.54 0.46 0.49 0.43 0.41 0.41 0.34 0.30 0.29 0.25 0.24 0.32 0.39 0.31 0.37 0.35 0.43 0.48 0.56 0.55 0.49 0.53 0.43 0.51 0.47 0.51 0.56 0.49 0.39 0.36 0.34 0.31 0.34 0.33 0.36 0.45 0.46 0.44 0.45 0.51 0.57 0.61 0.69
0.72 0.70 0.57 0.47 0.45 0.43 0.41 0.39 0.35 0.35 0.36 0.32 0.35 0.30 0.26 0.31 0.37 0.40 0.42 0.45 0.57 0.51 0.47 0.48 0.48 0.47 0.40 0.54 0.52 0.46 0.45 0.40 0.38 0.39 0.34 0.32 0.38 0.47 0.46 0.45 0.45 0.45 0.50 0.55 0.59
Wind_Speed
18 18 18 19 19 19 18 18 18 18 17 16 15 14 14 14 15 15 16 14 15 16 15 16 19 18 16 16 15 12 11 9 1 4 1 8 9 9 9 11 6 5 15 18 22
19 20 20 20 20 20 20 20 20 19 18 18 16 15 14 14 15 19 17 18 17 17 19 19 19 19 18 17 15 14 5 8 5 6 3 0 6 8 8 9 11 14 17 19 22
20 21 21 21 22 22 22 22 21 20 20 19 17 16 14 13 14 15 14 20 20 19 21 20 20 20 20 18 17 16 7 7 6 8 8 4 6 11 9 8 12 15 17 20 21
22 22 23 23 23 23 23 24 23 22 21 20 19 18 16 13 10 6 9 15 21 20 22 23 23 23 21 20 18 17 13 13 9 8 5 2 2 3 7 11 12 13 17 19 19
24 25 25 25 25 25 25 25 23 23 22 21 20 18 16 17 18 15 10 12 20 22 24 26 26 24 23 21 19 18 17 15 6 9 9 11 6 4 8 12 11 15 17 18 18
26 27 27 28 28 28 28 26 25 24 22 21 19 18 18 21 18 19 15 15 18 24 25 27 26 25 23 22 21 18 18 17 16 9 12 10 9 8 9 12 12 15 17 17 18
28 29 29 30 30 30 29 28 27 25 23 22 21 20 22 23 16 16 18 18 19 22 26 27 27 27 25 23 22 21 19 19 16 15 12 10 15 9 11 11 12 13 15 17 17
29 30 31 31 32 31 30 30 28 26 25 23 22 21 22 20 24 21 19 20 20 20 24 26 28 27 28 23 22 23 22 20 22 19 16 12 13 14 14 17 12 13 14 16 17
31 32 32 33 32 31 31 30 30 27 25 22 20 23 22 20 25 26 23 22 22 21 22 25 27 29 28 28 23 26 23 25 21 21 18 17 14 15 18 17 14 14 14 15 16
33 33 34 34 33 31 31 31 26 25 24 24 26 23 25 22 21 27 27 24 25 24 24 26 27 29 30 30 27 23 25 22 25 23 23 19 17 13 17 20 19 14 15 15 15
34 34 35 35 33 32 30 26 26 23 24 31 27 28 23 20 20 23 28 27 27 28 28 28 28 32 34 32 30 25 24 26 23 24 24 24 20 17 15 17 21 14 18 16 17
36 36 36 35 34 32 29 27 27 30 35 34 39 40 38 31 27 27 29 31 31 32 29 28 32 31 31 32 33 31 27 26 24 24 22 24 23 21 18 20 21 19 25 16 18
38 38 38 37 34 31 28 30 30 32 34 36 38 40 38 38 35 31 34 34 34 34 34 33 24 30 32 33 34 35 31 27 24 18 19 21 22 24 20 23 18 22 20 19 20
39 40 39 38 31 32 31 33 32 30 28 30 26 25 36 37 41 35 37 36 34 37 35 33 35 31 33 33 34 34 33 29 26 25 24 26 21 23 22 22 21 23 20 21 21
40 40 38 34 31 29 34 34 32 26 21 9 14 17 23 39 21 42 37 40 39 33 38 37 32 33 33 32 33 32 32 31 29 25 26 25 24 23 24 24 24 22 22 25 22
40 39 35 29 28 29 32 31 27 20 23 9 14 17 18 31 40 28 41 43 39 37 37 38 34 34 31 29 32 30 29 30 31 27 29 29 27 26 26 26 24 23 24 23 24
40 37 29 26 24 29 27 24 18 17 20 13 21 23 25 26 32 39 39 44 44 41 40 37 40 35 33 30 32 31 30 26 28 30 28 30 30 25 22 26 23 27 24 25 24
40 32 25 24 27 26 24 21 17 17 18 23 25 27 27 25 25 32 38 42 46 44 33 36 39 42 33 38 32 35 34 28 31 27 26 30 31 30 28 24 25 27 26 25 26
39 29 25 21 28 25 21 18 18 18 21 23 27 25 21 18 17 21 40 42 45 48 44 36 39 35 39 34 34 33 36 31 26 25 24 25 30 28 30 31 27 25 27 27 27
35 31 25 25 29 23 19 21 20 19 24 24 26 24 27 23 21 17 21 40 40 45 46 41 28 39 38 35 38 38 31 30 29 26 25 22 25 24 28 32 32 26 25 28 28
31 29 25 31 26 21 19 20 21 24 25 24 24 26 25 22 21 22 24 18 13 30 44 45 38 32 37 42 40 35 34 35 28 26 22 18 18 20 27 28 30 32 29 25 28
31 28 32 27 24 16 16 20 22 23 21 23 20 22 21 21 23 23 24 24 19 22 30 39 42 36 35 40 40 40 38 35 27 30 25 19 12 5 12 27 27 25 32 29 28
32 32 26 28 19 20 21 22 23 20 21 18 18 17 21 22 23 24 20 21 25 21 21 24 38 38 37 32 41 44 41 38 31 26 28 22 16 7 5 22 23 24 25 30 28
31 31 25 23 20 23 23 22 20 18 17 15 22 15 18 20 21 23 19 19 23 25 25 30 33 38 38 35 33 41 40 38 37 30 26 26 14 11 11 14 17 19 24 24 28
30 22 23 23 23 23 21 21 22 19 14 11 17 9 17 18 18 21 21 19 19 19 22 29 32 35 38 34 29 37 38 40 41 33 31 25 26 14 13 15 16 17 20 22 23
24 23 23 25 24 23 20 18 21 20 20 18 18 9 16 17 17 19 20 20 20 20 19 21 28 30 34 33 27 27 39 39 39 38 30 29 22 19 14 14 18 17 16 16 18
22 24 22 22 23 19 18 21 22 22 17 16 15 18 17 17 18 20 22 27 27 24 21 20 20 25 34 31 31 30 27 37 37 36 34 30 24 21 20 19 18 18 20 17 16
Wind_Direction
326 324 322 320 318 316 314 310 307 304 300 299 296 290 283 277 271 255 244 235 224 218 214 212 210 209 206 213 216 240 265 287 343 74 257 137 105 109 122 138 134 139 146 152 155
326 324 321 319 316 314 311 309 305 301 296 293 290 287 283 279 272 257 246 235 227 216 215 209 207 206 209 215 217 221 235 242 243 163 176 28 128 142 143 135 121 128 136 152 158
327 324 321 319 315 312 309 306 303 299 294 289 283 281 279 278 272 257 245 230 221 215 212 212 209 209 214 217 220 232 226 191 244 261 218 139 140 156 150 141 143 147 152 159 162
326 323 321 318 315 312 309 305 300 297 293 286 279 274 269 263 257 249 246 226 215 213 212 213 211 213 217 220 223 228 196 210 255 245 201 218 227 126 160 150 149 158 160 161 168
324 321 319 316 313 311 308 304 298 295 290 283 276 268 259 251 250 254 246 225 212 213 213 213 212 213 217 221 224 228 210 210 255 246 164 173 187 356 149 148 153 162 168 169 172
323 321 318 315 312 309 306 301 298 293 286 280 273 262 255 254 253 241 237 224 218 215 216 216 215 216 221 223 226 228 231 239 229 227 185 193 189 170 204 155 151 170 177 179 180
324 321 318 315 311 308 304 299 295 290 283 276 267 258 254 249 250 239 231 227 221 217 217 217 216 217 221 226 230 234 239 231 240 225 218 220 198 198 166 168 157 168 179 186 187
326 323 321 318 314 308 302 297 292 285 281 273 260 254 257 254 241 240 233 227 222 219 219 216 217 222 223 228 233 235 227 240 228 222 224 215 223 186 196 188 176 178 181 187 191
327 325 323 320 317 312 306 297 289 279 277 265 255 253 259 250 240 234 232 226 220 220 218 217 218 221 222 224 232 228 228 227 231 218 219 215 231 209 198 194 185 186 190 190 195
327 325 323 321 317 314 312 303 288 275 269 260 258 254 251 246 241 231 226 225 218 217 216 218 217 218 221 217 222 223 222 227 227 213 214 217 225 210 205 201 190 193 194 198 198
327 325 324 322 318 315 311 308 300 275 273 263 254 249 256 250 247 229 222 220 217 217 216 214 217 219 218 220 222 229 224 223 227 222 219 224 220 205 212 214 207 202 196 201 202
328 325 324 321 317 314 310 311 300 284 278 265 258 254 250 248 251 233 217 216 215 216 214 214 223 219 219 219 221 225 230 227 226 217 217 220 219 222 221 208 205 210 205 201 200
328 326 323 319 315 314 309 308 300 291 276 270 257 249 241 238 238 230 218 216 216 215 214 218 223 219 218 217 220 221 225 228 224 202 228 222 225 224 219 227 215 207 209 205 203
328 326 324 322 313 312 311 308 302 292 276 272 246 254 234 233 235 230 220 217 220 219 217 222 221 213 218 219 217 221 220 226 229 227 220 219 224 224 222 211 216 215 216 206 204
328 327 324 321 315 316 315 309 304 285 272 255 244 252 241 224 239 225 222 218 221 219 215 220 217 219 216 218 217 222 218 222 230 236 235 223 227 225 219 219 208 217 210 211 205
328 326 324 320 315 314 318 315 305 272 251 281 281 276 259 227 230 234 218 219 221 224 223 223 219 222 218 217 220 218 220 220 225 232 235 231 230 225 224 218 221 215 210 209 208
331 327 322 321 320 324 323 322 312 278 270 290 283 276 266 254 232 229 216 215 214 218 218 218 222 218 218 215 212 212 212 215 220 221 230 229 235 234 229 216 224 210 215 211 209
333 327 323 319 324 322 322 315 305 307 296 279 276 270 256 250 250 228 226 218 215 219 218 216 215 215 212 215 210 211 211 216 217 221 227 229 232 232 233 231 223 211 213 211 207
335 331 319 319 325 320 313 305 311 319 318 295 276 261 258 270 250 256 228 223 216 217 219 216 224 213 219 214 211 208 215 216 223 226 231 229 231 241 227 228 227 222 211 210 206
335 331 318 322 321 313 302 295 303 312 314 307 274 262 260 260 250 255 240 219 219 217 221 225 225 219 213 215 216 220 211 214 220 228 231 230 231 226 223 221 220 221 213 209 206
334 333 327 325 317 304 293 302 307 307 303 304 288 262 257 254 243 240 218 235 233 222 217 223 227 221 216 211 212 211 215 213 221 224 229 237 242 231 218 214 216 215 213 211 206
335 331 325 330 320 312 306 310 308 307 303 302 287 265 245 248 239 230 228 223 238 233 224 219 218 223 225 217 215 215 215 212 216 216 225 235 246 241 225 207 210 215 209 211 209
333 329 331 330 317 318 312 310 311 305 308 300 291 276 249 242 236 221 230 235 239 233 217 212 211 215 221 224 208 212 213 216 218 219 219 224 228 222 222 192 203 205 210 206 208
333 332 335 335 327 320 318 314 312 307 314 300 291 289 253 239 235 221 230 229 238 236 221 212 212 217 213 215 209 205 213 213 217 214 216 217 202 203 193 193 197 200 202 204 206
338 343 342 338 338 325 313 310 314 311 301 283 289 273 274 238 244 218 230 243 230 230 220 213 216 217 222 217 218 208 213 214 213 217 213 215 214 195 195 200 200 193 194 197 191
339 341 340 329 325 328 323 319 316 316 312 299 292 265 267 246 240 233 234 228 217 226 219 217 210 215 221 218 227 229 210 215 215 215 216 218 217 194 187 177 187 182 179 180 190
341 336 335 335 332 327 324 326 318 316 312 297 279 276 273 248 244 240 232 224 220 228 223 215 211 215 216 215 220 224 212 211 214 212 213 211 211 190 191 188 187 191 196 197 202